When you browse on this site, cookies collect data to enhance your experience and personalize the content and advertising you see.
Visit our Privacy Policy to learn more. By continuing to use the site, you agree to this use of cookies and data.
  • En España
  • Lista de países
  • Para 7 días
  • Temperatura del agua
  • Mapa Satelital
  • El tiempo en el mapa
  • Informadores
  • user-avatar
    Iniciar sesión

    Tiempo cada hora Kalgoorlie

    Hoy, 16 Diciembre, Domingo

    Tiempo Temperatura Precipitaciones Viento Presión Humedad
    00:00 +29°C° 0 mm 9 mps 720 mmHg 20%
    01:00 +28°C° 0 mm 9 mps 720 mmHg 21%
    02:00 +27°C° 0 mm 9 mps 720 mmHg 23%
    03:00 +26°C° 0 mm 9 mps 720 mmHg 26%
    04:00 +26°C° 0 mm 8 mps 720 mmHg 28%
    05:00 +24°C° 0 mm 8 mps 720 mmHg 31%
    06:00 +26°C° 0 mm 9 mps 721 mmHg 29%
    07:00 +28°C° 0 mm 9 mps 721 mmHg 27%
    08:00 +29°C° 0 mm 10 mps 721 mmHg 25%
    09:00 +33°C° 0 mm 9 mps 721 mmHg 22%
    10:00 +35°C° 0 mm 8 mps 720 mmHg 19%
    11:00 +38°C° 0 mm 7 mps 720 mmHg 16%
    12:00 +39°C° 0 mm 7 mps 719 mmHg 16%
    13:00 +39°C° 0 mm 7 mps 718 mmHg 15%
    14:00 +40°C° 0 mm 7 mps 718 mmHg 14%
    15:00 +40°C° 0 mm 7 mps 717 mmHg 13%
    16:00 +39°C° 0 mm 7 mps 717 mmHg 12%
    17:00 +39°C° 0 mm 7 mps 717 mmHg 11%
    18:00 +38°C° 0 mm 6 mps 717 mmHg 13%
    19:00 +35°C° 0 mm 6 mps 718 mmHg 14%
    20:00 +34°C° 0 mm 5 mps 718 mmHg 16%
    21:00 +32°C° 0 mm 6 mps 718 mmHg 25%
    22:00 +29°C° 0 mm 6 mps 719 mmHg 34%
    23:00 +27°C° 0 mm 7 mps 719 mmHg 42%

    Mañana, 17 Diciembre, Lunes

    Tiempo Temperatura Precipitaciones Viento Presión Humedad
    00:00 +26°C° 0 mm 7 mps 719 mmHg 49%
    01:00 +23°C° 0 mm 6 mps 719 mmHg 56%
    02:00 +22°C° 0 mm 6 mps 719 mmHg 63%
    03:00 +21°C° 0 mm 6 mps 719 mmHg 67%
    04:00 +20°C° 0 mm 7 mps 719 mmHg 70%
    05:00 +18°C° 0 mm 8 mps 720 mmHg 74%
    06:00 +20°C° 0.5 mm 7 mps 720 mmHg 72%
    07:00 +20°C° 0.5 mm 7 mps 720 mmHg 71%
    08:00 +20°C° 0.5 mm 7 mps 721 mmHg 69%
    09:00 +21°C° 0.3 mm 6 mps 721 mmHg 67%
    10:00 +21°C° 0.3 mm 6 mps 721 mmHg 66%
    11:00 +22°C° 0.3 mm 6 mps 721 mmHg 64%
    12:00 +21°C° 0.1 mm 6 mps 722 mmHg 66%
    13:00 +21°C° 0.1 mm 7 mps 722 mmHg 68%
    14:00 +20°C° 0.1 mm 7 mps 722 mmHg 69%
    15:00 +20°C° 0 mm 8 mps 722 mmHg 69%
    16:00 +20°C° 0 mm 8 mps 722 mmHg 68%
    17:00 +20°C° 0 mm 8 mps 723 mmHg 68%
    18:00 +20°C° 0 mm 8 mps 723 mmHg 70%
    19:00 +18°C° 0 mm 8 mps 724 mmHg 72%
    20:00 +18°C° 0 mm 8 mps 724 mmHg 75%
    21:00 +17°C° 0 mm 8 mps 724 mmHg 75%
    22:00 +17°C° 0 mm 8 mps 725 mmHg 76%
    23:00 +17°C° 0 mm 8 mps 725 mmHg 76%

    Pasado mañana, 18 Diciembre, Martes

    Tiempo Temperatura Precipitaciones Viento Presión Humedad
    00:00 +17°C° 0 mm 8 mps 725 mmHg 76%
    01:00 +17°C° 0 mm 7 mps 724 mmHg 76%
    02:00 +16°C° 0 mm 7 mps 724 mmHg 77%
    03:00 +16°C° 0 mm 7 mps 725 mmHg 76%
    04:00 +16°C° 0 mm 7 mps 725 mmHg 76%
    05:00 +16°C° 0 mm 7 mps 725 mmHg 76%
    06:00 +16°C° 0 mm 7 mps 726 mmHg 74%
    07:00 +17°C° 0 mm 7 mps 726 mmHg 73%
    08:00 +17°C° 0 mm 6 mps 727 mmHg 72%
    09:00 +19°C° 0 mm 6 mps 727 mmHg 69%
    10:00 +19°C° 0 mm 6 mps 727 mmHg 65%
    11:00 +20°C° 0 mm 6 mps 728 mmHg 62%
    12:00 +22°C° 0 mm 6 mps 727 mmHg 56%
    13:00 +23°C° 0 mm 6 mps 727 mmHg 50%
    14:00 +26°C° 0 mm 6 mps 727 mmHg 44%
    15:00 +27°C° 0 mm 6 mps 727 mmHg 42%
    16:00 +27°C° 0 mm 6 mps 727 mmHg 40%
    17:00 +28°C° 0 mm 7 mps 727 mmHg 37%
    18:00 +27°C° 0 mm 7 mps 728 mmHg 41%
    19:00 +24°C° 0 mm 7 mps 729 mmHg 45%
    20:00 +23°C° 0 mm 7 mps 729 mmHg 48%
    21:00 +21°C° 0 mm 7 mps 730 mmHg 53%
    22:00 +20°C° 0 mm 7 mps 730 mmHg 58%
    23:00 +19°C° 0 mm 6 mps 730 mmHg 63%

    19 Diciembre, Miércoles

    Tiempo Temperatura Precipitaciones Viento Presión Humedad
    00:00 +17°C° 0 mm 6 mps 730 mmHg 66%
    01:00 +16°C° 0 mm 6 mps 730 mmHg 69%
    02:00 +15°C° 0 mm 5 mps 730 mmHg 72%
    03:00 +15°C° 0 mm 5 mps 730 mmHg 74%
    04:00 +14°C° 0 mm 5 mps 730 mmHg 76%
    05:00 +14°C° 0 mm 5 mps 730 mmHg 78%
    06:00 +15°C° 0 mm 5 mps 731 mmHg 73%
    07:00 +16°C° 0 mm 5 mps 731 mmHg 67%
    08:00 +17°C° 0 mm 5 mps 732 mmHg 61%
    09:00 +20°C° 0 mm 5 mps 732 mmHg 53%
    10:00 +22°C° 0 mm 4 mps 731 mmHg 46%
    11:00 +25°C° 0 mm 4 mps 731 mmHg 38%
    12:00 +26°C° 0 mm 4 mps 731 mmHg 34%
    13:00 +28°C° 0 mm 4 mps 730 mmHg 29%
    14:00 +29°C° 0 mm 4 mps 730 mmHg 25%
    15:00 +30°C° 0 mm 4 mps 730 mmHg 24%
    16:00 +30°C° 0 mm 5 mps 730 mmHg 23%
    17:00 +30°C° 0 mm 5 mps 730 mmHg 22%
    18:00 +29°C° 0 mm 5 mps 731 mmHg 24%
    19:00 +28°C° 0 mm 5 mps 731 mmHg 26%
    20:00 +27°C° 0 mm 6 mps 732 mmHg 29%
    21:00 +26°C° 0 mm 7 mps 732 mmHg 36%
    22:00 +23°C° 0 mm 8 mps 732 mmHg 43%
    23:00 +22°C° 0 mm 9 mps 732 mmHg 50%

    20 Diciembre, Jueves

    Tiempo Temperatura Precipitaciones Viento Presión Humedad
    00:00 +21°C° 0 mm 8 mps 732 mmHg 55%
    01:00 +20°C° 0 mm 8 mps 732 mmHg 60%
    02:00 +18°C° 0 mm 8 mps 731 mmHg 64%
    03:00 +17°C° 0 mm 7 mps 731 mmHg 67%
    04:00 +16°C° 0 mm 7 mps 731 mmHg 70%
    05:00 +16°C° 0 mm 7 mps 731 mmHg 73%
    06:00 +17°C° 0 mm 7 mps 732 mmHg 68%
    07:00 +18°C° 0 mm 7 mps 732 mmHg 63%
    08:00 +20°C° 0 mm 7 mps 733 mmHg 58%
    09:00 +22°C° 0 mm 6 mps 733 mmHg 51%
    10:00 +24°C° 0 mm 6 mps 733 mmHg 44%
    11:00 +27°C° 0 mm 5 mps 732 mmHg 38%
    12:00 +28°C° 0 mm 5 mps 732 mmHg 34%
    13:00 +29°C° 0 mm 4 mps 731 mmHg 31%
    14:00 +30°C° 0 mm 3 mps 730 mmHg 28%
    15:00 +30°C° 0 mm 3 mps 730 mmHg 27%
    16:00 +30°C° 0 mm 3 mps 730 mmHg 25%
    17:00 +31°C° 0 mm 3 mps 730 mmHg 24%
    18:00 +30°C° 0 mm 3 mps 730 mmHg 25%
    19:00 +30°C° 0 mm 4 mps 731 mmHg 26%
    20:00 +29°C° 0 mm 4 mps 731 mmHg 26%
    21:00 +28°C° 0 mm 5 mps 731 mmHg 29%
    22:00 +26°C° 0 mm 7 mps 731 mmHg 31%
    23:00 +24°C° 0 mm 9 mps 731 mmHg 34%

    21 Diciembre, Viernes

    Tiempo Temperatura Precipitaciones Viento Presión Humedad
    00:00 +23°C° 0 mm 9 mps 731 mmHg 41%
    01:00 +21°C° 0 mm 9 mps 730 mmHg 48%
    02:00 +19°C° 0 mm 9 mps 730 mmHg 55%
    03:00 +18°C° 0 mm 8 mps 730 mmHg 58%
    04:00 +17°C° 0 mm 7 mps 731 mmHg 61%
    05:00 +16°C° 0 mm 7 mps 731 mmHg 64%
    06:00 +18°C° 0 mm 7 mps 732 mmHg 60%
    07:00 +20°C° 0 mm 7 mps 732 mmHg 56%
    08:00 +21°C° 0 mm 7 mps 733 mmHg 51%
    09:00 +23°C° 0 mm 7 mps 732 mmHg 45%
    10:00 +26°C° 0 mm 7 mps 732 mmHg 38%
    11:00 +28°C° 0 mm 7 mps 732 mmHg 31%
    12:00 +29°C° 0 mm 6 mps 731 mmHg 29%
    13:00 +30°C° 0 mm 5 mps 731 mmHg 27%
    14:00 +32°C° 0 mm 4 mps 730 mmHg 24%
    15:00 +32°C° 0 mm 4 mps 730 mmHg 23%
    16:00 +32°C° 0 mm 4 mps 730 mmHg 22%
    17:00 +33°C° 0 mm 4 mps 730 mmHg 21%
    18:00 +32°C° 0 mm 4 mps 730 mmHg 22%
    19:00 +30°C° 0 mm 4 mps 731 mmHg 23%
    20:00 +29°C° 0 mm 5 mps 731 mmHg 24%
    21:00 +28°C° 0 mm 6 mps 731 mmHg 25%
    22:00 +27°C° 0 mm 7 mps 732 mmHg 27%
    23:00 +26°C° 0 mm 8 mps 732 mmHg 28%
    Mostrar más